Regional Weather Roundup
Issued by NWS Charleston, SC

Current Version | Previous Version | Text Only | Print | Product List | Glossary Off
Versions: 1 2 3 4 5 6 7 8 9 10 11 12 13 14 15 16 17 18 19 20 21 22 23 24 25 26 27 28 29 30 31 32 33 34 35 36 37 38 39 40 41 42 43 44 45 46 47 48 49 50
000 ASUS42 KCHS 040827 RWRCHS Regional Weather Roundup National Weather Service Charleston SC 400 AM EDT SAT APR 04 2020 NOTE: "fair" indicates few or no clouds below 12,000 feet with no significant weather and/or obstructions to visibility. Not all stations are quality controlled. Use data with caution, especially dewpoint observations. SCZ027-030-031-034>040-042>050-040900- ...Southeast South Carolina... CITY SKY/WX TMP DP RH WIND PRES REMARKS N Charleston FAIR 55 47 74 N5 29.89F Waterfront Prk N/A 62 52 69 CALM 29.75S Mount Pleasant FAIR 54 50 87 CALM 29.90R Johns Island FAIR 55 52 88 CALM 29.90R Pinopolis N/A 63 52 67 N5 29.82R Moncks Corner FAIR 55 46 71 CALM 29.91S Summerville PTSUNNY 52 46 82 CALM 29.90R Beaufort MCAS FAIR 56 51 84 SW5 29.91S Beaufort Arpt FAIR 55 54 94 SW3 29.90S Hilton Head Is FAIR 59 54 82 VRB6 29.91F Walterboro FAIR 52 46 82 CALM 29.91S Allendale FAIR 52 50 93 CALM 29.91S ...Southern Midlands and Pee Dee... CITY SKY/WX TMP DP RH WIND PRES REMARKS Georgetown FAIR 52 41 66 N6 29.90S Kingstree FAIR 43 43 100 CALM 29.91S FOG Orangeburg FAIR 55 43 63 N5 29.91S Barnwell PTSUNNY 50 48 93 CALM 29.92S Aiken FAIR 52 47 82 CALM 29.94S Manning FAIR 46 43 87 CALM 29.92S Columbia MOCLDY 51 45 79 W3 29.92S Sumter FAIR 53 42 66 CALM 29.92R Florence FAIR 52 39 61 N5 29.91F Myrtle Beach FAIR 53 44 71 NW3 29.90S N Myrtle Beach FAIR 56 37 49 N6 29.88F $$ GAZ063-065-086>088-099>101-113>116-118-119-134>141-150-040900- ...Southeast Georgia... CITY SKY/WX TMP DP RH WIND PRES REMARKS Savannah Arpt FAIR 56 50 80 W3 29.92F Hunter AAF FAIR 54 50 86 CALM 29.90F Fort Stewart FAIR 52 49 90 CALM 29.91F Statesboro FAIR 50 47 91 CALM 29.92S Sylvania FAIR 52 50 92 CALM 29.92S Claxton FAIR 50 49 95 CALM 29.93S Millen FAIR 50 48 93 CALM 29.92S Metter FAIR 50 48 94 CALM 29.93S Reidsville NOT AVBL ...CSRA, Central and far Southeast Georgia... CITY SKY/WX TMP DP RH WIND PRES REMARKS Thomson FAIR 50 49 97 CALM 29.91F Augusta-Bush FAIR 50 48 93 CALM 29.91S Augusta-Daniel FAIR 61 46 57 CALM 29.92S Swainsboro FAIR 50 48 93 CALM 29.93F Vidalia FAIR 55 46 71 W3 29.93F Eastman FAIR 57 49 73 CALM 29.96F Hazlehurst FAIR 62 45 55 CALM 29.94R Alma FAIR 54 51 90 CALM 29.94R Waycross FAIR 55 46 73 CALM 29.94S Jesup FAIR 54 48 82 CALM 29.94R Baxley FAIR 54 52 94 CALM 29.94S Brunswick FAIR 54 51 88 SW3 29.93R Saint Simons FAIR 62 51 67 W5 29.92F $$ SCZ027-028-034-036>038-045-046-048>050-GAZ119-141-040900- ...Lake and Supplemental Coastal Observations... STATION/POSITION TIME TEMP WIND PRES WAVE SWELL AIR SEA DIR/SP/G HT/PER HT/PER/DIR (UTC) (F) (DEG/KT/KT) (MB) (FT/S) (FT/S/D) Winyah Bay 0745 58 340/ 6 1011.0F Lake Murray 0730 57 CALM 1012.9S Chrlstn Harbor 0742 62 67 320/ 4/ 6 1012.3F ACE Basin NERRS 0745 59 240/ 2 1013.0S Fort Pulaski 0742 61 65 260/ 4/ 5 1013.4F Sapelo Island 0800 59 250/ 3 1013.0 $$ ANZ835-935-AMZ111-154-330-350-352-354-370-450-454-472-040900- ...C-MAN and Buoy Observations... STATION/POSITION TIME TEMP WIND PRES WAVE SWELL AIR SEA DIR/SP/G HT/PER HT/PER/DIR (UTC) (F) (DEG/KT/KT) (MB) (FT/S) (FT/S/D) Buoy 41004 0810 68 71 1011.5 Buoy 41008 0750 67 67 250/ 10/ 12 1012.5F 2/11 2/ 80/11 Folly Beach CMAN 0800 61 320/ 4/ 5 1012.6F Capers Nearshore 0808 64 66 360/ 12/ 17 1012.1R Fripp Nearshore 0708 66 66 270/ 6/ 12 1011.8F STATION/POSITION TIME TEMP WIND PRES WAVE SWELL AIR SEA DIR/SP/G HT/PER HT/PER/DIR (UTC) (F) (DEG/KT/KT) (MB) (FT/S) (FT/S/D) 5E St. Marys GA 0800 67 N/A 2/11 2/ 60/11 Frying Pan Buoy 0810 68 71 330/ 16/ 19 1010.8 Buoy 41025 0800 54 58 350/ 14/ 17 1010.4 Cape Lookout NC 0800 55 20/ 7/ 8 1012.0R Buoy 41002 0810 71 330/ 17/ 23 1010.1 Buoy 41010 0810 74 320/ 12/ 16 N/A St Augustine FL 0800 61 69 210/ 2/ 4 1013.7F $$

USA.gov is the U.S. government's official web portal to all federal, state and local government web resources and services.